Powrót do katalogu

IUS R/B(2)

AktywnyGEO
NORAD 28161·ROCKET BODY·🇺🇸 United States

Wystrzelony Feb 14, 2004 z Cape Canaveral Space Force Station

Loading…

TLE

ŚwieżeSource: Space-Track

Epoka: Sep 14, 2026, 11:55 UTC

1 28161U 04004D   26257.49704705  .00000095  00000-0  00000+0 0  9997
2 28161  12.2998  25.6051 0004236  27.4922 332.5581  0.99820535 26287

Śledź IUS R/B(2) w czasie rzeczywistym z AllMySat

Download on the App Store